| time (UTC) | temp F | wind direction | speed knots | gust knots | rain 1hr in | rain 24hr in | rain mn in | humidity % | barometer mb |
| 20260902024654 | 57 | 194 | 5.2 | 11.3 | 0.00 | 0.01 | 0.00 | 90 | 1020.5 |
| 20260902023933 | 57 | 184 | 7.0 | 11.3 | 0.00 | 0.01 | 0.00 | 91 | 1020.7 |
| 20260902023431 | 57 | 191 | 5.2 | 9.6 | 0.00 | 0.01 | 0.00 | 90 | 1020.7 |
| 20260902022933 | 57 | 162 | 4.3 | 8.7 | 0.00 | 0.01 | 0.00 | 90 | 1020.7 |
| 20260902022430 | 57 | 156 | 6.1 | 8.7 | 0.00 | 0.01 | 0.00 | 90 | 1020.8 |
| 20260902021931 | 57 | 190 | 6.1 | 9.6 | 0.00 | 0.01 | 0.00 | 90 | 1020.7 |
| 20260902021431 | 57 | 185 | 5.2 | 11.3 | 0.00 | 0.01 | 0.00 | 90 | 1020.8 |
| 20260902020928 | 57 | 160 | 7.8 | 12.2 | 0.00 | 0.01 | 0.00 | 90 | 1020.9 |
| 20260902020443 | 58 | 211 | 6.1 | 12.2 | 0.00 | 0.01 | 0.00 | 90 | 1021.1 |
| 20260902015928 | 58 | 184 | 7.0 | 11.3 | 0.00 | 0.01 | 0.00 | 90 | 1021.0 |
| 20260902015428 | 58 | 198 | 6.1 | 8.7 | 0.00 | 0.01 | 0.00 | 90 | 1020.8 |
| 20260902015147 | 57 | 189 | 4.3 | 8.7 | 0.00 | 0.01 | 0.00 | 90 | 1020.9 |
| 20260902014429 | 57 | 170 | 3.5 | 8.7 | 0.00 | 0.01 | 0.00 | 90 | 1020.8 |
| 20260902014153 | 57 | 172 | 5.2 | 7.8 | 0.00 | 0.01 | 0.00 | 90 | 1020.9 |
| 20260902013427 | 57 | 189 | 3.5 | 8.7 | 0.00 | 0.01 | 0.00 | 90 | 1021.0 |
| 20260902012928 | 57 | 167 | 5.2 | 8.7 | 0.00 | 0.01 | 0.00 | 90 | 1021.0 |
| 20260902012428 | 57 | 160 | 4.3 | 7.0 | 0.00 | 0.01 | 0.00 | 90 | 1021.0 |
| 20260902011929 | 57 | 157 | 5.2 | 7.8 | 0.00 | 0.01 | 0.00 | 89 | 1020.9 |
| 20260902011429 | 57 | 159 | 4.3 | 8.7 | 0.00 | 0.01 | 0.00 | 89 | 1020.9 |
| 20260902010927 | 57 | 156 | 4.3 | 8.7 | 0.00 | 0.01 | 0.00 | 89 | 1021.1 |
| 20260902010427 | 57 | 168 | 4.3 | 7.8 | 0.00 | 0.01 | 0.00 | 89 | 1020.8 |
| 20260902005928 | 57 | 143 | 4.3 | 7.8 | 0.00 | 0.01 | 0.00 | 89 | 1021.0 |
| 20260902005427 | 57 | 172 | 3.5 | 7.0 | 0.00 | 0.01 | 0.00 | 89 | 1020.8 |
| 20260902004929 | 57 | 167 | 3.5 | 7.8 | 0.00 | 0.01 | 0.00 | 90 | 1020.9 |
| 20260902004427 | 57 | 160 | 4.3 | 7.8 | 0.00 | 0.01 | 0.00 | 90 | 1021.0 |
| 20260902003927 | 57 | 159 | 4.3 | 7.0 | 0.00 | 0.01 | 0.00 | 90 | 1021.3 |
| 20260902003427 | 57 | 167 | 5.2 | 7.0 | 0.00 | 0.01 | 0.00 | 90 | 1021.1 |
| 20260902002928 | 57 | 155 | 4.3 | 7.8 | 0.00 | 0.01 | 0.00 | 90 | 1021.1 |
| 20260902002427 | 57 | 154 | 3.5 | 7.8 | 0.00 | 0.01 | 0.00 | 90 | 1020.9 |
| 20260902001927 | 57 | 170 | 4.3 | 7.0 | 0.00 | 0.01 | 0.00 | 91 | 1021.0 |
| 20260902001430 | 57 | 158 | 3.5 | 6.1 | 0.00 | 0.01 | 0.00 | 91 | 1021.3 |
| 20260902000429 | 56 | 180 | 4.3 | 6.1 | 0.00 | 0.01 | 0.00 | 92 | 1021.4 |
| 20260901235928 | 56 | 195 | 3.5 | 6.1 | 0.00 | 0.01 | 0.00 | 92 | 1021.4 |
| 20260901235429 | 56 | 189 | 3.5 | 6.1 | 0.00 | 0.01 | 0.00 | 92 | 1021.4 |
| 20260901235152 | 55 | 206 | 3.5 | 5.2 | 0.00 | 0.01 | 0.00 | 92 | 1021.1 |
| 20260901234428 | 55 | 190 | 3.5 | 5.2 | 0.00 | 0.01 | 0.00 | 92 | 1021.3 |
| 20260901233930 | 55 | 182 | 3.5 | 3.5 | 0.00 | 0.01 | 0.00 | 91 | 1021.1 |
| 20260901233428 | 55 | 171 | 3.5 | 5.2 | 0.00 | 0.01 | 0.00 | 91 | 1021.0 |
| 20260901232929 | 54 | 176 | 2.6 | 5.2 | 0.00 | 0.01 | 0.00 | 91 | 1021.1 |
| 20260901232428 | 54 | 196 | 3.5 | 5.2 | 0.00 | 0.01 | 0.00 | 90 | 1021.3 |
| 20260901231928 | 54 | 189 | 3.5 | 3.5 | 0.00 | 0.01 | 0.00 | 90 | 1021.4 |
| 20260901231428 | 54 | 194 | 2.6 | 3.5 | 0.00 | 0.01 | 0.00 | 89 | 1021.4 |
| 20260901230928 | 54 | 197 | 3.5 | 3.5 | 0.00 | 0.01 | 0.00 | 89 | 1021.3 |
| 20260901230644 | 54 | 201 | 1.7 | 3.5 | 0.00 | 0.01 | 0.00 | 89 | 1021.3 |
| 20260901225925 | 54 | 193 | 3.5 | 3.5 | 0.00 | 0.01 | 0.00 | 90 | 1021.4 |
| 20260901225515 | 54 | 190 | 2.6 | 3.5 | 0.00 | 0.01 | 0.00 | 89 | 1021.5 |
| 20260901224930 | 54 | 193 | 3.5 | 5.2 | 0.00 | 0.01 | 0.00 | 89 | 1021.4 |
| 20260901224430 | 54 | 200 | 2.6 | 5.2 | 0.00 | 0.01 | 0.00 | 89 | 1021.4 |
| 20260901223935 | 55 | 198 | 2.6 | 3.5 | 0.00 | 0.01 | 0.00 | 89 | 1021.4 |
| 20260901222945 | 55 | 186 | 2.6 | 3.5 | 0.00 | 0.01 | 0.00 | 89 | 1021.2 |
| 20260901222446 | 55 | 188 | 1.7 | 3.5 | 0.00 | 0.01 | 0.00 | 89 | 1021.3 |
| 20260901221935 | 55 | 169 | 2.6 | 3.5 | 0.00 | 0.01 | 0.00 | 89 | 1021.6 |
| 20260901221428 | 54 | 172 | 2.6 | 5.2 | 0.00 | 0.01 | 0.00 | 89 | 1021.4 |
| 20260901220935 | 54 | 201 | 2.6 | 5.2 | 0.00 | 0.01 | 0.00 | 88 | 1021.4 |
| 20260901220442 | 54 | 200 | 3.5 | 3.5 | 0.00 | 0.01 | 0.00 | 88 | 1021.7 |
| 20260901220232 | 54 | 202 | 2.6 | 5.2 | 0.00 | 0.01 | 0.01 | 88 | 1021.6 |
| 20260901215428 | 54 | 201 | 1.7 | 5.2 | 0.00 | 0.01 | 0.01 | 88 | 1021.5 |
| 20260901214937 | 55 | 197 | 2.6 | 5.2 | 0.00 | 0.01 | 0.01 | 87 | 1021.3 |
| 20260901214428 | 55 | 193 | 3.5 | 3.5 | 0.00 | 0.01 | 0.01 | 87 | 1021.4 |
| 20260901213929 | 55 | 186 | 1.7 | 3.5 | 0.00 | 0.01 | 0.01 | 87 | 1021.4 |
| 20260901213430 | 55 | 187 | 2.6 | 5.2 | 0.00 | 0.01 | 0.01 | 87 | 1021.5 |
| 20260901212930 | 55 | 186 | 3.5 | 6.1 | 0.00 | 0.01 | 0.01 | 87 | 1021.6 |
| 20260901212442 | 55 | 200 | 3.5 | 3.5 | 0.00 | 0.01 | 0.01 | 86 | 1021.6 |
| 20260901211932 | 55 | 200 | 2.6 | 3.5 | 0.00 | 0.01 | 0.01 | 86 | 1021.6 |
| 20260901211443 | 56 | 187 | 2.6 | 3.5 | 0.00 | 0.01 | 0.01 | 86 | 1021.7 |
| 20260901210430 | 56 | 170 | 3.5 | 3.5 | 0.00 | 0.01 | 0.01 | 86 | 1021.4 |
| 20260901205932 | 56 | 177 | 2.6 | 3.5 | 0.00 | 0.01 | 0.01 | 85 | 1021.7 |
| 20260901205432 | 56 | 176 | 1.7 | 2.6 | 0.00 | 0.01 | 0.01 | 85 | 1021.4 |
| 20260901204928 | 57 | 183 | 1.7 | 2.6 | 0.00 | 0.01 | 0.01 | 85 | 1021.7 |
| 20260901204431 | 57 | 193 | 1.7 | 2.6 | 0.00 | 0.01 | 0.01 | 85 | 1021.6 |
| 20260901203929 | 57 | 194 | 1.7 | 2.6 | 0.00 | 0.01 | 0.01 | 85 | 1021.7 |
| 20260901203431 | 57 | 196 | 1.7 | 2.6 | 0.00 | 0.01 | 0.01 | 84 | 1022.0 |
| 20260901202930 | 57 | 207 | 2.6 | 3.5 | 0.00 | 0.01 | 0.01 | 84 | 1021.9 |
| 20260901202430 | 57 | 211 | 1.7 | 5.2 | 0.00 | 0.01 | 0.01 | 84 | 1021.7 |
| 20260901201928 | 57 | 227 | 2.6 | 5.2 | 0.00 | 0.01 | 0.01 | 83 | 1021.8 |
| 20260901201432 | 57 | 215 | 2.6 | 3.5 | 0.00 | 0.01 | 0.01 | 83 | 1021.8 |
| 20260901200939 | 57 | 202 | 1.7 | 2.6 | 0.00 | 0.01 | 0.01 | 82 | 1021.7 |
| 20260901200431 | 57 | 216 | 1.7 | 2.6 | 0.00 | 0.01 | 0.01 | 82 | 1021.7 |
| 20260901195930 | 58 | 217 | 1.7 | 2.6 | 0.00 | 0.01 | 0.01 | 81 | 1021.8 |
| 20260901195431 | 58 | 217 | 1.7 | 1.7 | 0.00 | 0.01 | 0.01 | 81 | 1021.5 |
| 20260901194932 | 58 | 217 | 0.0 | 1.7 | 0.00 | 0.01 | 0.01 | 80 | 1021.6 |
| 20260901194430 | 58 | 217 | 0.9 | 0.9 | 0.00 | 0.01 | 0.01 | 80 | 1021.4 |
| 20260901193929 | 59 | 217 | 0.0 | 1.7 | 0.00 | 0.01 | 0.01 | 79 | 1021.3 |
| 20260901193430 | 59 | 218 | 0.9 | 1.7 | 0.00 | 0.01 | 0.01 | 79 | 1021.3 |
| 20260901192929 | 59 | 213 | 1.7 | 1.7 | 0.00 | 0.01 | 0.01 | 78 | 1021.2 |
| 20260901192439 | 60 | 213 | 0.0 | 1.7 | 0.00 | 0.01 | 0.01 | 77 | 1021.5 |
| 20260901191929 | 60 | 213 | 0.9 | 1.7 | 0.00 | 0.01 | 0.01 | 77 | 1021.4 |
| 20260901191433 | 61 | 189 | 1.7 | 1.7 | 0.00 | 0.01 | 0.01 | 77 | 1021.5 |
| 20260901191154 | 61 | 215 | 0.9 | 1.7 | 0.00 | 0.01 | 0.01 | 77 | 1021.5 |
| 20260901190431 | 61 | 236 | 0.0 | 1.7 | 0.00 | 0.01 | 0.01 | 76 | 1021.2 |
| 20260901185929 | 61 | 242 | 0.9 | 3.5 | 0.00 | 0.01 | 0.01 | 76 | 1021.3 |
| 20260901185650 | 62 | 227 | 0.0 | 6.1 | 0.00 | 0.01 | 0.01 | 76 | 1021.4 |
| 20260901184930 | 62 | 232 | 0.9 | 6.1 | 0.00 | 0.01 | 0.01 | 75 | 1021.2 |
| 20260901184430 | 61 | 249 | 2.6 | 6.1 | 0.00 | 0.01 | 0.01 | 76 | 1021.2 |
| 20260901183930 | 61 | 241 | 2.6 | 6.1 | 0.00 | 0.01 | 0.01 | 73 | 1021.1 |
| 20260901183429 | 62 | 235 | 4.3 | 6.1 | 0.00 | 0.01 | 0.01 | 73 | 1021.1 |
| 20260901182428 | 63 | 211 | 1.7 | 2.6 | 0.00 | 0.01 | 0.01 | 71 | 1021.0 |
| 20260901181932 | 63 | 200 | 1.7 | 3.5 | 0.00 | 0.01 | 0.01 | 70 | 1020.7 |
| 20260901181432 | 64 | 204 | 2.6 | 3.5 | 0.00 | 0.01 | 0.01 | 69 | 1020.8 |
| 20260901180930 | 64 | 213 | 2.6 | 5.2 | 0.00 | 0.01 | 0.01 | 68 | 1020.8 |
| 20260901180431 | 65 | 210 | 1.7 | 5.2 | 0.00 | 0.01 | 0.01 | 67 | 1020.7 |
| 20260901180157 | 65 | 225 | 2.6 | 5.2 | 0.00 | 0.01 | 0.01 | 66 | 1021.1 |
| 20260901175427 | 66 | 224 | 3.5 | 7.8 | 0.00 | 0.01 | 0.01 | 66 | 1021.2 |
| 20260901174930 | 66 | 224 | 2.6 | 7.8 | 0.00 | 0.01 | 0.01 | 65 | 1020.7 |
| 20260901174437 | 67 | 204 | 1.7 | 7.8 | 0.00 | 0.01 | 0.01 | 65 | 1020.9 |
| 20260901173930 | 67 | 220 | 4.3 | 7.8 | 0.00 | 0.01 | 0.01 | 65 | 1021.0 |
| 20260901173431 | 67 | 215 | 3.5 | 7.8 | 0.00 | 0.01 | 0.01 | 65 | 1020.8 |
| 20260901172930 | 67 | 229 | 3.5 | 7.0 | 0.00 | 0.01 | 0.01 | 67 | 1020.9 |
| 20260901172430 | 67 | 229 | 3.5 | 5.2 | 0.00 | 0.01 | 0.01 | 66 | 1020.8 |
| 20260901171930 | 67 | 244 | 0.9 | 5.2 | 0.00 | 0.01 | 0.01 | 65 | 1021.2 |
| 20260901171656 | 67 | 222 | 2.6 | 7.0 | 0.00 | 0.01 | 0.01 | 64 | 1021.0 |
| 20260901170919 | 67 | 237 | 3.5 | 8.7 | 0.00 | 0.01 | 0.01 | 63 | 1020.9 |
| 20260901170433 | 68 | 243 | 4.3 | 8.7 | 0.00 | 0.01 | 0.01 | 62 | 1021.1 |
| 20260901165919 | 68 | 235 | 4.3 | 7.8 | 0.00 | 0.01 | 0.01 | 62 | 1021.1 |
| 20260901165418 | 69 | 214 | 5.2 | 11.3 | 0.00 | 0.01 | 0.01 | 60 | 1021.1 |
| 20260901164919 | 69 | 232 | 2.6 | 11.3 | 0.00 | 0.01 | 0.01 | 59 | 1021.1 |
| 20260901164417 | 70 | 234 | 5.2 | 13.0 | 0.00 | 0.01 | 0.01 | 59 | 1021.0 |
| 20260901163925 | 70 | 227 | 2.6 | 13.0 | 0.00 | 0.01 | 0.01 | 57 | 1021.0 |
| 20260901163417 | 70 | 208 | 4.3 | 11.3 | 0.00 | 0.01 | 0.01 | 57 | 1020.9 |
| 20260901162855 | 70 | 232 | 6.1 | 9.6 | 0.00 | 0.01 | 0.01 | 58 | 1021.0 |
| 20260901162353 | 70 | 229 | 5.2 | 12.2 | 0.00 | 0.01 | 0.01 | 57 | 1020.9 |
| 20260901161900 | 70 | 228 | 3.5 | 13.9 | 0.00 | 0.01 | 0.01 | 59 | 1020.9 |
| 20260901161350 | 70 | 208 | 8.7 | 13.9 | 0.00 | 0.01 | 0.01 | 58 | 1020.8 |
| 20260901160851 | 69 | 241 | 3.5 | 7.0 | 0.00 | 0.01 | 0.01 | 61 | 1020.9 |
| 20260901160351 | 70 | 250 | 3.5 | 8.7 | 0.00 | 0.01 | 0.01 | 59 | 1020.8 |
| 20260901155852 | 70 | 238 | 4.3 | 8.7 | 0.01 | 0.01 | 0.01 | 58 | 1020.9 |
| 20260901155354 | 71 | 231 | 6.1 | 13.9 | 0.01 | 0.01 | 0.01 | 57 | 1020.7 |
| 20260901154855 | 71 | 241 | 7.0 | 13.9 | 0.01 | 0.01 | 0.01 | 56 | 1020.8 |
| 20260901154354 | 72 | 231 | 10.4 | 12.2 | 0.01 | 0.01 | 0.01 | 55 | 1021.0 |
| 20260901154125 | 72 | 233 | 7.8 | 12.2 | 0.01 | 0.01 | 0.01 | 55 | 1020.8 |
| 20260901153619 | 73 | 232 | 9.6 | 13.9 | 0.01 | 0.01 | 0.01 | 54 | 1020.8 |
| 20260901152854 | 73 | 196 | 7.0 | 13.9 | 0.01 | 0.01 | 0.01 | 54 | 1020.9 |
| 20260901152359 | 73 | 222 | 8.7 | 11.3 | 0.01 | 0.01 | 0.01 | 54 | 1020.9 |
| 20260901151858 | 73 | 205 | 3.5 | 11.3 | 0.01 | 0.01 | 0.01 | 56 | 1020.8 |
| 20260901151352 | 73 | 221 | 6.1 | 7.8 | 0.01 | 0.01 | 0.01 | 56 | 1020.7 |
| 20260901150851 | 73 | 254 | 2.6 | 11.3 | 0.01 | 0.01 | 0.01 | 56 | 1020.8 |
| 20260901150351 | 73 | 248 | 5.2 | 12.2 | 0.01 | 0.01 | 0.01 | 55 | 1020.8 |
| 20260901145849 | 73 | 207 | 6.1 | 12.2 | 0.00 | 0.00 | 0.00 | 56 | 1020.7 |
| 20260901145351 | 72 | 232 | 6.1 | 11.3 | 0.00 | 0.00 | 0.00 | 58 | 1020.7 |
| 20260901144851 | 72 | 272 | 2.6 | 7.0 | 0.00 | 0.00 | 0.00 | 55 | 1021.0 |
| 20260901144626 | 72 | 225 | 4.3 | 7.8 | 0.00 | 0.00 | 0.00 | 61 | 1020.7 |
| 20260901143852 | 72 | 227 | 6.1 | 9.6 | 0.00 | 0.00 | 0.00 | 60 | 1020.9 |
| 20260901143352 | 72 | 224 | 1.7 | 9.6 | 0.00 | 0.00 | 0.00 | 59 | 1020.8 |
| 20260901142859 | 73 | 225 | 4.3 | 8.7 | 0.00 | 0.00 | 0.00 | 59 | 1020.7 |
| 20260901142349 | 73 | 231 | 2.6 | 8.7 | 0.00 | 0.00 | 0.00 | 60 | 1020.9 |
| 20260901141852 | 72 | 233 | 6.1 | 12.2 | 0.00 | 0.00 | 0.00 | 63 | 1020.8 |
| 20260901141351 | 72 | 252 | 3.5 | 12.2 | 0.00 | 0.00 | 0.00 | 63 | 1021.1 |
| 20260901140851 | 71 | 210 | 6.1 | 11.3 | 0.00 | 0.00 | 0.00 | 63 | 1021.0 |
| 20260901140608 | 70 | 256 | 2.6 | 8.7 | 0.00 | 0.00 | 0.00 | 65 | 1021.0 |
| 20260901135853 | 70 | 249 | 5.2 | 8.7 | 0.00 | 0.00 | 0.00 | 65 | 1021.0 |
| 20260901135350 | 70 | 255 | 2.6 | 7.8 | 0.00 | 0.00 | 0.00 | 64 | 1020.9 |
| 20260901134851 | 71 | 239 | 3.5 | 7.8 | 0.00 | 0.00 | 0.00 | 64 | 1021.2 |
| 20260901134351 | 71 | 222 | 3.5 | 7.8 | 0.00 | 0.01 | 0.00 | 64 | 1021.1 |
| 20260901133851 | 71 | 233 | 5.2 | 8.7 | 0.00 | 0.01 | 0.00 | 64 | 1021.1 |
| 20260901133353 | 71 | 241 | 1.7 | 9.6 | 0.00 | 0.01 | 0.00 | 64 | 1021.2 |
| 20260901132852 | 71 | 229 | 5.2 | 9.6 | 0.00 | 0.01 | 0.00 | 67 | 1021.1 |
| 20260901132620 | 71 | 226 | 4.3 | 9.6 | 0.00 | 0.01 | 0.00 | 65 | 1021.1 |
| 20260901131851 | 71 | 220 | 3.5 | 9.6 | 0.00 | 0.01 | 0.00 | 65 | 1021.1 |
| 20260901131349 | 71 | 243 | 5.2 | 9.6 | 0.00 | 0.01 | 0.00 | 65 | 1021.2 |
| 20260901131102 | 71 | 224 | 0.9 | 9.6 | 0.00 | 0.01 | 0.00 | 66 | 1021.2 |
| 20260901130339 | 71 | 253 | 5.2 | 11.3 | 0.00 | 0.01 | 0.00 | 67 | 1021.2 |
| 20260901125839 | 71 | 249 | 5.2 | 11.3 | 0.00 | 0.01 | 0.00 | 66 | 1021.2 |
| 20260901125339 | 71 | 267 | 4.3 | 11.3 | 0.00 | 0.01 | 0.00 | 66 | 1021.3 |
| 20260901125105 | 71 | 237 | 7.0 | 11.3 | 0.00 | 0.01 | 0.00 | 65 | 1021.2 |
| 20260901124341 | 72 | 248 | 5.2 | 8.7 | 0.00 | 0.01 | 0.00 | 63 | 1021.1 |
| 20260901123839 | 72 | 221 | 3.5 | 8.7 | 0.00 | 0.01 | 0.00 | 64 | 1021.1 |
| 20260901123607 | 71 | 235 | 7.8 | 7.8 | 0.00 | 0.01 | 0.00 | 69 | 1021.3 |
| 20260901122840 | 70 | 222 | 5.2 | 7.0 | 0.00 | 0.01 | 0.00 | 67 | 1021.3 |
| 20260901122341 | 71 | 242 | 0.9 | 9.6 | 0.00 | 0.01 | 0.00 | 66 | 1021.3 |
| 20260901121840 | 71 | 212 | 4.3 | 11.3 | 0.00 | 0.01 | 0.00 | 65 | 1021.2 |
| 20260901121609 | 71 | 238 | 7.8 | 13.0 | 0.00 | 0.01 | 0.00 | 66 | 1021.2 |
| 20260901120839 | 70 | 240 | 7.8 | 13.0 | 0.00 | 0.01 | 0.00 | 69 | 1021.5 |
| 20260901120339 | 69 | 251 | 5.2 | 9.6 | 0.00 | 0.02 | 0.00 | 70 | 1021.0 |
| 20260901115337 | 68 | 242 | 4.3 | 12.2 | 0.00 | 0.02 | 0.00 | 71 | 1021.1 |
| 20260901114839 | 69 | 247 | 5.2 | 13.0 | 0.00 | 0.02 | 0.00 | 70 | 1021.1 |
| 20260901114340 | 69 | 201 | 5.2 | 13.0 | 0.00 | 0.02 | 0.00 | 68 | 1021.2 |
| 20260901114104 | 69 | 239 | 4.3 | 9.6 | 0.00 | 0.02 | 0.00 | 68 | 1021.2 |
| 20260901113339 | 70 | 232 | 5.2 | 9.6 | 0.00 | 0.02 | 0.00 | 68 | 1021.2 |
| 20260901112840 | 70 | 215 | 5.2 | 9.6 | 0.00 | 0.02 | 0.00 | 68 | 1021.1 |
| 20260901112341 | 70 | 241 | 3.5 | 7.8 | 0.00 | 0.02 | 0.00 | 68 | 1021.1 |
| 20260901111839 | 70 | 219 | 4.3 | 7.8 | 0.00 | 0.02 | 0.00 | 71 | 1021.2 |
| 20260901111339 | 70 | 205 | 4.3 | 8.7 | 0.00 | 0.02 | 0.00 | 69 | 1021.3 |
| 20260901110839 | 70 | 228 | 4.3 | 8.7 | 0.00 | 0.02 | 0.00 | 68 | 1021.1 |
| 20260901110339 | 70 | 226 | 4.3 | 8.7 | 0.00 | 0.02 | 0.00 | 69 | 1021.3 |
| 20260901105841 | 71 | 219 | 4.3 | 13.0 | 0.00 | 0.02 | 0.00 | 66 | 1021.4 |
| 20260901105340 | 72 | 222 | 5.2 | 13.0 | 0.00 | 0.02 | 0.00 | 64 | 1021.3 |
| 20260901105107 | 73 | 227 | 8.7 | 12.2 | 0.00 | 0.02 | 0.00 | 62 | 1021.2 |
| 20260901104344 | 73 | 202 | 4.3 | 8.7 | 0.00 | 0.02 | 0.00 | 63 | 1021.4 |
| 20260901104105 | 73 | 205 | 6.1 | 11.3 | 0.00 | 0.02 | 0.00 | 66 | 1021.2 |
| 20260901103339 | 72 | 209 | 7.0 | 11.3 | 0.00 | 0.02 | 0.00 | 67 | 1021.3 |
| 20260901102339 | 70 | 230 | 6.1 | 12.2 | 0.00 | 0.02 | 0.00 | 75 | 1021.1 |
| 20260901101839 | 69 | 204 | 4.3 | 12.2 | 0.00 | 0.02 | 0.00 | 76 | 1021.3 |
| 20260901101339 | 67 | 234 | 7.0 | 8.7 | 0.00 | 0.02 | 0.00 | 76 | 1021.2 |
| 20260901101057 | 67 | 215 | 4.3 | 9.6 | 0.00 | 0.02 | 0.00 | 74 | 1021.3 |
| 20260901100345 | 68 | 219 | 7.0 | 9.6 | 0.00 | 0.02 | 0.00 | 73 | 1021.3 |
| 20260901095839 | 68 | 205 | 6.1 | 9.6 | 0.00 | 0.02 | 0.00 | 74 | 1021.2 |
| 20260901095352 | 68 | 232 | 1.7 | 9.6 | 0.00 | 0.02 | 0.00 | 74 | 1021.2 |
| 20260901094839 | 68 | 233 | 5.2 | 7.8 | 0.00 | 0.02 | 0.00 | 73 | 1021.3 |
| 20260901094340 | 69 | 213 | 5.2 | 7.8 | 0.00 | 0.02 | 0.00 | 75 | 1021.1 |
| 20260901093839 | 69 | 249 | 3.5 | 7.8 | 0.00 | 0.03 | 0.00 | 73 | 1021.2 |
| 20260901093351 | 70 | 219 | 0.9 | 9.6 | 0.00 | 0.04 | 0.00 | 71 | 1021.3 |
| 20260901092840 | 70 | 202 | 7.0 | 9.6 | 0.00 | 0.04 | 0.00 | 75 | 1021.2 |
| 20260901092339 | 69 | 197 | 5.2 | 11.3 | 0.00 | 0.04 | 0.00 | 78 | 1021.1 |
| 20260901091840 | 68 | 229 | 7.0 | 11.3 | 0.00 | 0.04 | 0.00 | 78 | 1021.3 |
| 20260901091608 | 68 | 229 | 4.3 | 8.7 | 0.00 | 0.04 | 0.00 | 77 | 1021.3 |
| 20260901090840 | 68 | 235 | 4.3 | 8.7 | 0.00 | 0.04 | 0.00 | 79 | 1021.1 |
| 20260901090339 | 68 | 253 | 4.3 | 8.7 | 0.00 | 0.04 | 0.00 | 78 | 1021.0 |
| 20260901085841 | 68 | 219 | 2.6 | 9.6 | 0.00 | 0.04 | 0.00 | 79 | 1021.0 |
| 20260901085338 | 69 | 208 | 6.1 | 9.6 | 0.00 | 0.04 | 0.00 | 82 | 1021.0 |
| 20260901084839 | 69 | 210 | 4.3 | 7.8 | 0.00 | 0.04 | 0.00 | 83 | 1020.9 |
| 20260901084339 | 69 | 196 | 5.2 | 7.8 | 0.00 | 0.04 | 0.00 | 84 | 1020.8 |
| 20260901083839 | 69 | 190 | 4.3 | 7.8 | 0.00 | 0.04 | 0.00 | 85 | 1020.9 |
| 20260901083557 | 68 | 217 | 3.5 | 7.8 | 0.00 | 0.04 | 0.00 | 88 | 1020.6 |
| 20260901082839 | 68 | 179 | 3.5 | 8.7 | 0.00 | 0.04 | 0.00 | 86 | 1020.9 |
| 20260901082350 | 67 | 232 | 6.1 | 8.7 | 0.00 | 0.04 | 0.00 | 92 | 1020.9 |
| 20260901081837 | 67 | 213 | 3.5 | 7.8 | 0.00 | 0.04 | 0.00 | 93 | 1020.8 |
| 20260901081352 | 66 | 203 | 4.3 | 7.0 | 0.00 | 0.04 | 0.00 | 94 | 1020.7 |
| 20260901081105 | 66 | 220 | 6.1 | 7.0 | 0.00 | 0.04 | 0.00 | 97 | 1020.7 |
| 20260901080340 | 65 | 207 | 3.5 | 7.0 | 0.00 | 0.04 | 0.00 | 97 | 1020.8 |
| 20260901075837 | 64 | 230 | 3.5 | 7.0 | 0.00 | 0.04 | 0.00 | 97 | 1020.8 |
| 20260901075339 | 63 | 228 | 3.5 | 7.0 | 0.00 | 0.04 | 0.00 | 97 | 1020.6 |
| 20260901074838 | 63 | 207 | 3.5 | 6.1 | 0.00 | 0.04 | 0.00 | 97 | 1020.7 |
| 20260901074602 | 63 | 199 | 1.7 | 6.1 | 0.00 | 0.04 | 0.00 | 98 | 1020.6 |
| 20260901073839 | 62 | 224 | 4.3 | 5.2 | 0.00 | 0.04 | 0.00 | 98 | 1020.5 |
| 20260901073339 | 62 | 212 | 3.5 | 5.2 | 0.00 | 0.04 | 0.00 | 98 | 1020.4 |
| 20260901072838 | 62 | 227 | 1.7 | 5.2 | 0.00 | 0.04 | 0.00 | 98 | 1020.4 |
| 20260901072339 | 62 | 210 | 3.5 | 6.1 | 0.00 | 0.04 | 0.00 | 98 | 1020.3 |
| 20260901071839 | 61 | 206 | 3.5 | 6.1 | 0.00 | 0.04 | 0.00 | 98 | 1020.2 |
| 20260901071338 | 61 | 220 | 2.6 | 6.1 | 0.00 | 0.04 | 0.00 | 98 | 1020.3 |
| 20260901071103 | 61 | 210 | 3.5 | 5.2 | 0.00 | 0.04 | 0.00 | 98 | 1020.3 |
| 20260901070339 | 60 | 219 | 1.7 | 5.2 | 0.00 | 0.04 | 0.00 | 98 | 1020.3 |
| 20260901065839 | 60 | 214 | 2.6 | 7.8 | 0.00 | 0.04 | 0.00 | 98 | 1020.1 |
| 20260901065339 | 61 | 213 | 4.3 | 8.7 | 0.00 | 0.04 | 0.00 | 98 | 1020.0 |
| 20260901064839 | 60 | 209 | 3.5 | 8.7 | 0.00 | 0.04 | 0.00 | 98 | 1020.1 |
| 20260901064346 | 60 | 199 | 4.3 | 7.8 | 0.00 | 0.04 | 0.00 | 99 | 1020.0 |
| 20260901064053 | 60 | 205 | 5.2 | 7.8 | 0.00 | 0.04 | 0.00 | 98 | 1019.9 |
| 20260901063603 | 60 | 205 | 5.2 | 7.8 | 0.00 | 0.04 | 0.00 | 98 | 1020.1 |
| 20260901063106 | 59 | 203 | 4.3 | 7.0 | 0.00 | 0.05 | 0.00 | 98 | 1020.1 |
| 20260901062328 | 59 | 202 | 4.3 | 7.0 | 0.00 | 0.05 | 0.00 | 98 | 1020.0 |
| 20260901061827 | 59 | 188 | 4.3 | 7.8 | 0.00 | 0.05 | 0.00 | 98 | 1020.1 |
| 20260901061326 | 59 | 180 | 2.6 | 7.8 | 0.00 | 0.06 | 0.00 | 98 | 1020.0 |
| 20260901060840 | 59 | 199 | 3.5 | 7.0 | 0.00 | 0.07 | 0.00 | 98 | 1019.8 |
| 20260901060328 | 59 | 197 | 3.5 | 6.1 | 0.00 | 0.07 | 0.00 | 98 | 1019.8 |
| 20260901060103 | 59 | 201 | 4.3 | 6.1 | 0.00 | 0.08 | 0.00 | 98 | 1019.9 |
| 20260901055328 | 59 | 197 | 4.3 | 7.0 | 0.00 | 0.10 | 0.00 | 98 | 1019.7 |
| 20260901054827 | 59 | 200 | 3.5 | 7.0 | 0.00 | 0.12 | 0.00 | 98 | 1019.8 |
| 20260901054327 | 59 | 202 | 4.3 | 7.0 | 0.00 | 0.13 | 0.00 | 98 | 1019.4 |
| 20260901053835 | 59 | 209 | 4.3 | 7.0 | 0.00 | 0.14 | 0.00 | 98 | 1019.6 |
| 20260901053326 | 59 | 208 | 3.5 | 7.0 | 0.00 | 0.14 | 0.00 | 98 | 1019.5 |
| 20260901052829 | 59 | 211 | 3.5 | 6.1 | 0.00 | 0.14 | 0.00 | 98 | 1019.5 |
| 20260901052327 | 59 | 211 | 3.5 | 6.1 | 0.00 | 0.14 | 0.00 | 98 | 1019.3 |
| 20260901051827 | 59 | 200 | 3.5 | 6.1 | 0.00 | 0.14 | 0.00 | 98 | 1019.3 |
| 20260901051327 | 59 | 220 | 3.5 | 7.0 | 0.00 | 0.14 | 0.00 | 98 | 1019.3 |
| 20260901050827 | 59 | 213 | 4.3 | 7.0 | 0.00 | 0.14 | 0.00 | 98 | 1019.4 |
| 20260901050328 | 59 | 216 | 3.5 | 7.0 | 0.00 | 0.14 | 0.00 | 98 | 1019.3 |
| 20260901045827 | 59 | 206 | 3.5 | 7.0 | 0.00 | 0.14 | 0.00 | 98 | 1019.2 |
| 20260901045328 | 59 | 192 | 4.3 | 7.8 | 0.00 | 0.14 | 0.00 | 98 | 1019.2 |
| 20260901044827 | 59 | 201 | 4.3 | 7.8 | 0.00 | 0.14 | 0.00 | 98 | 1019.3 |
| 20260901044328 | 59 | 221 | 5.2 | 7.8 | 0.00 | 0.14 | 0.00 | 98 | 1019.2 |
| 20260901043828 | 59 | 194 | 3.5 | 7.8 | 0.00 | 0.14 | 0.00 | 98 | 1019.4 |
| 20260901043330 | 59 | 209 | 5.2 | 7.0 | 0.00 | 0.14 | 0.00 | 98 | 1019.2 |
| 20260901042828 | 59 | 202 | 3.5 | 8.7 | 0.00 | 0.14 | 0.00 | 98 | 1019.0 |
| 20260901042327 | 59 | 191 | 5.2 | 8.7 | 0.00 | 0.14 | 0.00 | 98 | 1019.1 |
| 20260901041827 | 59 | 193 | 7.0 | 8.7 | 0.00 | 0.14 | 0.00 | 97 | 1019.1 |
| 20260901041547 | 59 | 199 | 3.5 | 9.6 | 0.00 | 0.14 | 0.00 | 97 | 1018.8 |
| 20260901040827 | 59 | 216 | 4.3 | 9.6 | 0.00 | 0.14 | 0.00 | 97 | 1018.7 |
| 20260901040551 | 59 | 185 | 5.2 | 8.7 | 0.00 | 0.14 | 0.00 | 97 | 1018.8 |
| 20260901040052 | 59 | 201 | 3.5 | 7.8 | 0.00 | 0.14 | 0.00 | 97 | 1018.7 |
| 20260901035545 | 59 | 178 | 4.3 | 7.8 | 0.00 | 0.14 | 0.00 | 97 | 1018.7 |
| 20260901034833 | 59 | 178 | 6.1 | 8.7 | 0.00 | 0.14 | 0.00 | 97 | 1018.9 |
| 20260901034327 | 59 | 184 | 6.1 | 8.7 | 0.00 | 0.14 | 0.00 | 97 | 1018.5 |
| 20260901033827 | 59 | 169 | 4.3 | 8.7 | 0.00 | 0.14 | 0.00 | 97 | 1018.5 |
| 20260901033327 | 59 | 188 | 5.2 | 8.7 | 0.00 | 0.14 | 0.00 | 97 | 1018.5 |
| 20260901032828 | 59 | 197 | 4.3 | 9.6 | 0.00 | 0.14 | 0.00 | 97 | 1018.6 |
| 20260901032329 | 59 | 182 | 5.2 | 9.6 | 0.00 | 0.14 | 0.00 | 97 | 1018.8 |
| 20260901031828 | 59 | 172 | 5.2 | 8.7 | 0.00 | 0.14 | 0.00 | 97 | 1018.8 |
| 20260901031327 | 60 | 185 | 5.2 | 8.7 | 0.00 | 0.14 | 0.00 | 97 | 1018.7 |
| 20260901031050 | 60 | 196 | 6.1 | 7.8 | 0.00 | 0.14 | 0.00 | 97 | 1018.9 |
| 20260901030329 | 60 | 210 | 4.3 | 8.7 | 0.00 | 0.14 | 0.00 | 97 | 1018.8 |
| 20260901030051 | 60 | 185 | 5.2 | 8.7 | 0.00 | 0.14 | 0.00 | 97 | 1018.7 |
| 20260901025328 | 60 | 202 | 6.1 | 9.6 | 0.00 | 0.14 | 0.00 | 97 | 1018.4 |